TimeCST,TemperatureF,Dew PointF,Humidity,Sea Level PressureIn,VisibilityMPH,Wind Direction,Wind SpeedMPH,Gust SpeedMPH,PrecipitationIn,Events,Conditions,WindDirDegrees,DateUTC
12:11 AM,17.6,10.4,73,30.28,10.0,Calm,Calm,-,N/A,,Clear,0,2013-03-08 06:11:00
12:31 AM,15.8,10.4,79,30.28,10.0,East,3.5,-,N/A,,Clear,90,2013-03-08 06:31:00
12:51 AM,14.0,8.6,79,30.28,10.0,Calm,Calm,-,N/A,,Clear,0,2013-03-08 06:51:00
1:11 AM,15.8,10.4,79,30.29,10.0,Calm,Calm,-,N/A,,Clear,0,2013-03-08 07:11:00
1:51 AM,14.0,10.4,86,30.29,10.0,Calm,Calm,-,N/A,,Clear,0,2013-03-08 07:51:00
2:11 AM,12.2,10.4,92,30.28,10.0,Calm,Calm,-,N/A,,Clear,0,2013-03-08 08:11:00
2:32 AM,14.0,10.4,86,30.28,10.0,Calm,Calm,-,N/A,,Clear,0,2013-03-08 08:32:00
2:51 AM,12.2,8.6,85,30.28,10.0,Calm,Calm,-,N/A,,Clear,0,2013-03-08 08:51:00
3:11 AM,10.4,6.8,85,30.27,10.0,Calm,Calm,-,N/A,,Clear,0,2013-03-08 09:11:00
3:32 AM,10.4,8.6,92,30.27,7.0,Calm,Calm,-,N/A,,Clear,0,2013-03-08 09:32:00
3:51 AM,8.6,6.8,92,30.27,5.0,Calm,Calm,-,N/A,,Clear,0,2013-03-08 09:51:00
4:11 AM,8.6,6.8,92,30.27,5.0,Calm,Calm,-,N/A,,Clear,0,2013-03-08 10:11:00
4:32 AM,10.4,8.6,92,30.27,7.0,Calm,Calm,-,N/A,,Clear,0,2013-03-08 10:32:00
4:51 AM,12.2,8.6,85,30.27,7.0,Calm,Calm,-,N/A,,Clear,0,2013-03-08 10:51:00
5:11 AM,10.4,8.6,92,30.28,5.0,Calm,Calm,-,N/A,,Clear,0,2013-03-08 11:11:00
5:32 AM,10.4,8.6,92,30.28,4.0,Calm,Calm,-,N/A,,Clear,0,2013-03-08 11:32:00
5:51 AM,10.4,6.8,85,30.27,4.0,Calm,Calm,-,N/A,,Clear,0,2013-03-08 11:51:00
6:32 AM,10.4,6.8,85,30.28,1.0,Calm,Calm,-,N/A,,Clear,0,2013-03-08 12:32:00
6:51 AM,8.6,6.8,92,30.27,0.8,Calm,Calm,-,N/A,,Mist,0,2013-03-08 12:51:00
7:11 AM,10.4,8.6,92,30.27,2.0,Calm,Calm,-,N/A,,Clear,0,2013-03-08 13:11:00
7:32 AM,12.2,10.4,92,30.27,2.5,Calm,Calm,-,N/A,,Clear,0,2013-03-08 13:32:00
7:51 AM,15.8,12.2,86,30.26,2.5,Calm,Calm,-,N/A,,Clear,0,2013-03-08 13:51:00
8:11 AM,15.8,14.0,93,30.26,3.0,Calm,Calm,-,N/A,,Clear,0,2013-03-08 14:11:00
8:30 AM,17.6,15.8,93,30.26,3.0,Calm,Calm,-,N/A,,Clear,0,2013-03-08 14:30:00
8:51 AM,19.4,17.6,93,30.27,4.0,Calm,Calm,-,N/A,,Clear,0,2013-03-08 14:51:00
9:11 AM,21.2,19.4,93,30.27,5.0,SSE,4.6,-,N/A,,Clear,160,2013-03-08 15:11:00
9:31 AM,23.0,21.2,93,30.28,5.0,South,4.6,-,N/A,,Clear,170,2013-03-08 15:31:00
9:51 AM,26.6,19.4,74,30.27,5.0,SSE,9.2,-,N/A,,Haze,160,2013-03-08 15:51:00
10:11 AM,26.6,19.4,74,30.27,7.0,South,8.1,-,N/A,,Clear,170,2013-03-08 16:11:00
10:31 AM,28.4,19.4,69,30.26,7.0,South,6.9,-,N/A,,Clear,170,2013-03-08 16:31:00
10:51 AM,28.4,21.2,74,30.26,7.0,South,3.5,-,N/A,,Clear,170,2013-03-08 16:51:00
11:11 AM,30.2,21.2,69,30.27,7.0,SSE,3.5,-,0.01,,Clear,150,2013-03-08 17:11:00
11:31 AM,30.2,21.2,69,30.26,7.0,SSE,3.5,-,0.01,,Clear,150,2013-03-08 17:31:00
11:51 AM,30.2,21.2,69,30.26,5.0,Calm,Calm,-,0.02,,Haze,0,2013-03-08 17:51:00
12:11 PM,33.8,21.2,60,30.25,7.0,SSE,5.8,-,0.01,,Clear,150,2013-03-08 18:11:00
12:31 PM,33.8,21.2,60,30.25,7.0,ESE,8.1,-,0.01,,Clear,110,2013-03-08 18:31:00
12:51 PM,33.8,23.0,65,30.24,7.0,SE,3.5,-,0.02,,Clear,130,2013-03-08 18:51:00
1:12 PM,33.8,23.0,65,30.23,7.0,SSE,5.8,-,N/A,,Clear,160,2013-03-08 19:12:00
1:31 PM,33.8,23.0,65,30.23,7.0,SE,3.5,-,0.01,,Clear,130,2013-03-08 19:31:00
1:51 PM,35.6,23.0,60,30.22,7.0,ESE,3.5,-,0.04,,Clear,120,2013-03-08 19:51:00
2:11 PM,35.6,23.0,60,30.22,7.0,ESE,8.1,-,0.02,,Clear,110,2013-03-08 20:11:00
2:31 PM,35.6,23.0,60,30.22,7.0,East,5.8,-,0.03,,Clear,100,2013-03-08 20:31:00
2:51 PM,35.6,24.8,65,30.21,7.0,SE,6.9,-,0.03,,Clear,140,2013-03-08 20:51:00
3:11 PM,35.6,23.0,60,30.21,7.0,ESE,5.8,-,N/A,,Clear,120,2013-03-08 21:11:00
3:31 PM,37.4,24.8,60,30.21,7.0,SE,4.6,-,N/A,,Clear,130,2013-03-08 21:31:00
3:51 PM,37.4,24.8,60,30.21,10.0,SE,5.8,-,N/A,,Clear,130,2013-03-08 21:51:00
4:11 PM,37.4,24.8,60,30.20,7.0,ESE,6.9,-,N/A,,Clear,120,2013-03-08 22:11:00
4:31 PM,35.6,24.8,65,30.20,7.0,ESE,4.6,-,N/A,,Clear,110,2013-03-08 22:31:00
4:51 PM,35.6,24.8,65,30.20,7.0,ESE,4.6,-,N/A,,Clear,110,2013-03-08 22:51:00
5:11 PM,35.6,24.8,65,30.20,7.0,ESE,4.6,-,N/A,,Clear,110,2013-03-08 23:11:00
5:32 PM,35.6,24.8,65,30.19,7.0,East,5.8,-,N/A,,Clear,90,2013-03-08 23:32:00
5:51 PM,35.6,24.8,65,30.19,7.0,East,4.6,-,N/A,,Clear,100,2013-03-08 23:51:00
6:11 PM,35.6,24.8,65,30.18,7.0,East,3.5,-,N/A,,Clear,90,2013-03-09 00:11:00
6:32 PM,33.8,24.8,70,30.18,7.0,East,3.5,-,N/A,,Clear,90,2013-03-09 00:32:00
6:51 PM,33.8,24.8,70,30.17,7.0,East,3.5,-,N/A,,Clear,80,2013-03-09 00:51:00
7:11 PM,33.8,24.8,70,30.17,7.0,East,3.5,-,N/A,,Clear,90,2013-03-09 01:11:00
7:32 PM,32.0,24.8,75,30.16,7.0,East,3.5,-,N/A,,Clear,90,2013-03-09 01:32:00
7:51 PM,32.0,24.8,75,30.16,7.0,Calm,Calm,-,N/A,,Clear,0,2013-03-09 01:51:00
8:11 PM,30.2,24.8,80,30.15,7.0,East,3.5,-,N/A,,Clear,80,2013-03-09 02:11:00
8:32 PM,30.2,24.8,80,30.13,7.0,East,4.6,-,N/A,,Clear,80,2013-03-09 02:32:00
8:51 PM,30.2,24.8,80,30.13,7.0,ENE,4.6,-,N/A,,Clear,70,2013-03-09 02:51:00
9:11 PM,30.2,24.8,80,30.13,7.0,ENE,3.5,-,N/A,,Clear,70,2013-03-09 03:11:00
9:31 PM,30.2,24.8,80,30.12,7.0,East,4.6,-,N/A,,Clear,80,2013-03-09 03:31:00
9:51 PM,30.2,24.8,80,30.12,7.0,East,3.5,-,N/A,,Clear,80,2013-03-09 03:51:00
10:11 PM,30.2,24.8,80,30.11,7.0,East,3.5,-,N/A,,Clear,80,2013-03-09 04:11:00
10:51 PM,30.2,24.8,80,30.10,7.0,East,3.5,-,N/A,,Clear,80,2013-03-09 04:51:00
11:11 PM,30.2,24.8,80,30.09,7.0,East,3.5,-,N/A,,Scattered Clouds,80,2013-03-09 05:11:00
11:31 PM,30.2,24.8,80,30.07,7.0,ENE,4.6,-,N/A,,Scattered Clouds,70,2013-03-09 05:31:00
11:51 PM,30.2,24.8,80,30.07,7.0,ENE,3.5,-,N/A,,Scattered Clouds,60,2013-03-09 05:51:00